Overview Statistics Trail Chart Weather Telemetry Raw packets
 

This is the latest recevied weather packets stored in our database for station/object KE5QKR. If no packets are shown the sender has not sent any weather packets the latest 10 day(s).

<< 4 5 6 7 8 9 10 >>
Time Temp. Humidity Pressure Rain* Wind** Luminosity Snow
1777924205 25.56° C 46% 1014.5 hPa 0 mm - 711 W/m² -
1777923901 26.11° C 48% 1014.6 hPa 0 mm - 730 W/m² -
1777923597 25.56° C 46% 1014.7 hPa 0 mm - 727 W/m² -
1777923295 25.56° C 47% 1015 hPa 0 mm - 745 W/m² -
1777922993 26.11° C 43% 1014.6 hPa 0 mm - 768 W/m² -
1777922690 25.56° C 42% 1014.6 hPa 0 mm - 732 W/m² -
1777922389 25.56° C 46% 1014.5 hPa 0 mm - 777 W/m² -
1777922086 25.56° C 44% 1014.6 hPa 0 mm - 787 W/m² -
1777921781 25.56° C 46% 1014.7 hPa 0 mm - 802 W/m² -
1777921478 25.56° C 45% 1014.6 hPa 0 mm - 804 W/m² -
1777921174 26.11° C 43% 1014.7 hPa 0 mm - 812 W/m² -
1777920872 25.56° C 48% 1014.7 hPa 0 mm - 819 W/m² -
1777920568 25° C 45% 1014.9 hPa 0 mm - 825 W/m² -
1777920263 25° C 43% 1015 hPa 0 mm - 832 W/m² -
1777919960 25.56° C 50% 1014.9 hPa 0 mm - 838 W/m² -
1777919657 25.56° C 45% 1014.8 hPa 0 mm - 841 W/m² -
1777919355 25° C 46% 1015 hPa 0 mm - 847 W/m² -
1777919052 26.11° C 44% 1015.1 hPa 0 mm - 848 W/m² -
1777918748 25.56° C 44% 1015 hPa 0 mm - 853 W/m² -
1777918446 25.56° C 49% 1015 hPa 0 mm - 833 W/m² -
1777918144 25.56° C 47% 1015.2 hPa 0 mm - 856 W/m² -
1777917843 26.11° C 44% 1015.2 hPa 0 mm - 859 W/m² -
1777917541 25° C 52% 1015.3 hPa 0 mm - 847 W/m² -
1777917237 25° C 46% 1015.2 hPa 0 mm - 865 W/m² -
1777916935 25° C 50% 1015.6 hPa 1.78 mm - 863 W/m² -

* Rain latest hour (hover to see other rain measurements)
** Current wind speed in m/s (hover to see current wind gust speed)